Change the Weather History Date:

Wednesday, May 15, 2013

  Actual Average (KWRI) Record (KWRI)
Temperature  
Mean Temperature 62 °F -  
Max Temperature 75 °F 69 °F 87 °F (2004)
Min Temperature 48 °F 48 °F 41 °F (1999)
Degree Days  
Heating Degree Days 4    
Growing Degree Days 12 (Base 50)    
Moisture  
Dew Point 50 °F    
Average Humidity 64    
Maximum Humidity 81    
Minimum Humidity 49    
Precipitation  
Precipitation 0.00 in - - ()
Sea Level Pressure  
Sea Level Pressure 29.88 in    
Wind  
Wind Speed 2 mph (SSW)    
Max Wind Speed 9 mph    
Max Gust Speed -    
Visibility 10 miles    
Events Rain    
Averages and records for this station are not official NWS values.
T = Trace of Precipitation, MM = Missing Value Source: NWS Daily Summary

Daily Weather History Graph

Daily Weather History Graph

Search for Another Location

Airport or City:

Trip Planner

Search our weather history database for the weather conditions in past years. The results will help you decide how hot, cold, wet, or windy it might be!

Date:

Astronomy

May. 15, 2013 Rise Set
Actual Time 5:44 AM EDT 8:07 PM EDT
Civil Twilight 5:13 AM EDT 8:38 PM EDT
Nautical Twilight 4:35 AM EDT 9:16 PM EDT
Astronomical Twilight 3:53 AM EDT 9:58 PM EDT
Moon 10:17 AM EDT (5/15) No Moon Set
Length of Visible Light 15h 25m
Length of Day
14h 23m
Waxing Crescent, 26% of the Moon is Illuminated
May 15
Waxing Crescent
May 18
First Quarter
May 25
Full
May 31
Last Quarter
Jun 8
New

Hourly Weather History & Observations

Time (EDT) Temp. Dew Point Humidity Pressure Visibility Wind Dir Wind Speed Gust Speed Precip Events Conditions
12:54 AM 48.0 °F 37.0 °F 66% 30.09 in 10.0 mi Calm Calm - N/A   Mostly Cloudy
1:54 AM 50.0 °F 42.1 °F 74% 30.07 in 10.0 mi Calm Calm - N/A   Overcast
2:54 AM 51.1 °F 44.1 °F 77% 30.06 in 10.0 mi Calm Calm - N/A   Overcast
3:54 AM 52.0 °F 44.1 °F 74% 30.04 in 10.0 mi Calm Calm - N/A   Overcast
4:54 AM 51.1 °F 44.1 °F 77% 30.04 in 10.0 mi Calm Calm - N/A   Overcast
5:54 AM 51.1 °F 44.1 °F 77% 30.04 in 10.0 mi Calm Calm - N/A   Overcast
6:54 AM 52.0 °F 44.1 °F 74% 30.01 in 10.0 mi ESE 3.5 mph - N/A   Mostly Cloudy
7:54 AM 55.9 °F 43.0 °F 62% 29.99 in 10.0 mi SE 6.9 mph - N/A   Partly Cloudy
8:54 AM 59.0 °F 45.0 °F 60% 29.99 in 10.0 mi Variable 5.8 mph - N/A   Overcast
9:54 AM 63.0 °F 46.9 °F 56% 29.95 in 10.0 mi South 5.8 mph - N/A   Scattered Clouds
10:54 AM 64.9 °F 48.0 °F 54% 29.95 in 10.0 mi SW 8.1 mph - N/A   Overcast
11:54 AM 68.0 °F 50.0 °F 52% 29.89 in 10.0 mi Variable 6.9 mph - N/A   Clear
12:54 PM 71.1 °F 51.1 °F 49% 29.88 in 10.0 mi SSW 6.9 mph - N/A   Partly Cloudy
1:54 PM 72.0 °F 52.0 °F 49% 29.85 in 9.0 mi SW 6.9 mph - 0.00 in Rain Light Rain
2:54 PM 71.1 °F 51.1 °F 49% 29.83 in 10.0 mi SW 9.2 mph - 0.00 in   Partly Cloudy
3:54 PM 72.0 °F 55.0 °F 55% 29.75 in 10.0 mi Calm Calm - 0.00 in   Clear
4:54 PM 73.0 °F 55.9 °F 55% 29.74 in 10.0 mi Variable 3.5 mph - N/A   Clear
5:54 PM 75.0 °F 57.0 °F 53% 29.71 in 10.0 mi SW 6.9 mph - N/A   Clear
6:54 PM 73.9 °F 57.0 °F 55% 29.72 in 10.0 mi SW 3.5 mph - N/A   Clear
7:54 PM 72.0 °F 55.9 °F 57% 29.72 in 10.0 mi Calm Calm - N/A   Clear
8:54 PM 64.9 °F 57.0 °F 75% 29.72 in 10.0 mi Calm Calm - N/A   Clear
9:54 PM 63.0 °F 57.0 °F 81% 29.73 in 10.0 mi Calm Calm - N/A   Clear
10:54 PM 64.9 °F 57.0 °F 75% 29.72 in 10.0 mi Calm Calm - N/A   Clear
11:54 PM 64.0 °F 57.9 °F 80% 29.72 in 10.0 mi Calm Calm - N/A   Clear